TOM1029 SCRM-SAWH

Flight info

Callsign TOM1029
Flight time 1h 21m
Altitude 40000
Route EIKEN1 KRILL UW56 BONTA DCT DABLI DABLI2
Aircraft B788/H-SDE1E2E3FGHIJ2J3J4J5M1RWXY/LB1D1

Departure

Time 2026-05-07 16:27
Airport Teniente Rodolfo Marsh Martin Airport (SCRM)

Arrival

Time 2026-05-07 17:49
Airport Ushuaia - Malvinas Argentinas International Airport (SAWH)
Time Latitude Longitude Altitude Speed Heading
2026-05-07 16:02 -62.19203 -58.98845 130 ft 0 kts 204°
2026-05-07 16:16 -62.19194 -58.98837 124 ft 2 kts 202°
2026-05-07 16:16 -62.19179 -58.98824 124 ft 2 kts 202°
2026-05-07 16:16 -62.19163 -58.98811 125 ft 2 kts 202°
2026-05-07 16:17 -62.19148 -58.98798 125 ft 2 kts 201°
2026-05-07 16:17 -62.19133 -58.98788 126 ft 2 kts 194°
2026-05-07 16:17 -62.19116 -58.98781 125 ft 2 kts 189°
2026-05-07 16:17 -62.19100 -58.98776 129 ft 2 kts 188°
2026-05-07 16:18 -62.19084 -58.98773 133 ft 2 kts 181°
2026-05-07 16:18 -62.19068 -58.98779 136 ft 2 kts 160°
2026-05-07 16:18 -62.19055 -58.98799 137 ft 2 kts 136°
2026-05-07 16:18 -62.19045 -58.98827 138 ft 2 kts 124°
2026-05-07 16:19 -62.19037 -58.98856 138 ft 2 kts 119°
2026-05-07 16:19 -62.19032 -58.98874 138 ft 1 kts 118°
2026-05-07 16:19 -62.19030 -58.98884 138 ft 1 kts 117°
2026-05-07 16:21 -62.19032 -58.98875 138 ft 3 kts 117°
2026-05-07 16:21 -62.19053 -58.98787 137 ft 11 kts 117°
2026-05-07 16:22 -62.19100 -58.98588 136 ft 18 kts 117°
2026-05-07 16:22 -62.19158 -58.98355 139 ft 17 kts 118°
2026-05-07 16:22 -62.19213 -58.98141 143 ft 15 kts 118°
2026-05-07 16:22 -62.19266 -58.97928 140 ft 17 kts 119°
2026-05-07 16:23 -62.19331 -58.97701 136 ft 18 kts 127°
2026-05-07 16:23 -62.19346 -58.97648 136 ft 0 kts 105°
2026-05-07 16:23 -62.19345 -58.97636 136 ft 2 kts 65°
2026-05-07 16:23 -62.19334 -58.97629 136 ft 2 kts 332°
2026-05-07 16:24 -62.19325 -58.97670 136 ft 4 kts 290°
2026-05-07 16:24 -62.19322 -58.97684 136 ft 0 kts 291°
2026-05-07 16:24 -62.19322 -58.97685 136 ft 0 kts 291°
2026-05-07 16:25 -62.19315 -58.97721 137 ft 17 kts 294°
2026-05-07 16:25 -62.19230 -58.98078 142 ft 64 kts 297°
2026-05-07 16:27 -62.19175 -58.98305 140 ft 82 kts 298°
2026-05-07 16:27 -62.18804 -58.99818 153 ft 142 kts 297°
2026-05-07 16:27 -62.18336 -59.01566 1002 ft 132 kts 300°
2026-05-07 16:28 -62.17897 -59.03273 1910 ft 133 kts 295°
2026-05-07 16:28 -62.17335 -59.05078 2282 ft 169 kts 313°
2026-05-07 16:28 -62.16108 -59.06176 2587 ft 209 kts 338°
2026-05-07 16:28 -62.14636 -59.07243 3101 ft 240 kts 336°
2026-05-07 16:29 -62.13060 -59.08848 3817 ft 255 kts 323°
2026-05-07 16:29 -62.11664 -59.11206 5098 ft 253 kts 314°
2026-05-07 16:29 -62.10353 -59.13785 6170 ft 259 kts 314°
2026-05-07 16:29 -62.08986 -59.16306 7222 ft 265 kts 316°
2026-05-07 16:30 -62.07561 -59.18805 8259 ft 269 kts 316°
2026-05-07 16:30 -62.06094 -59.21401 9309 ft 274 kts 316°
2026-05-07 16:30 -62.04626 -59.24037 10266 ft 281 kts 316°
2026-05-07 16:30 -62.03053 -59.26867 10628 ft 309 kts 316°
2026-05-07 16:31 -62.01350 -59.29901 10994 ft 333 kts 317°
2026-05-07 16:31 -61.99547 -59.33081 12039 ft 335 kts 317°
2026-05-07 16:31 -61.97730 -59.36301 12959 ft 341 kts 316°
2026-05-07 16:31 -61.95932 -59.39500 13892 ft 346 kts 316°
2026-05-07 16:32 -61.94072 -59.42795 14684 ft 352 kts 316°
2026-05-07 16:32 -61.92150 -59.46187 15471 ft 358 kts 316°
2026-05-07 16:32 -61.90216 -59.49596 16230 ft 365 kts 316°
2026-05-07 16:32 -61.88244 -59.53072 16980 ft 371 kts 316°
2026-05-07 16:33 -61.86244 -59.56586 17734 ft 377 kts 316°
2026-05-07 16:33 -61.84209 -59.60157 18450 ft 383 kts 316°
2026-05-07 16:33 -61.82147 -59.63767 19110 ft 388 kts 316°
2026-05-07 16:33 -61.80037 -59.67456 19777 ft 392 kts 316°
2026-05-07 16:34 -61.77945 -59.71107 20439 ft 396 kts 316°
2026-05-07 16:34 -61.75813 -59.74821 21085 ft 400 kts 316°
2026-05-07 16:34 -61.73637 -59.78604 21700 ft 404 kts 316°
2026-05-07 16:34 -61.71469 -59.82365 22309 ft 408 kts 316°
2026-05-07 16:35 -61.69256 -59.86199 22909 ft 412 kts 316°
2026-05-07 16:35 -61.67047 -59.90016 23507 ft 416 kts 316°
2026-05-07 16:35 -61.64790 -59.93911 24009 ft 419 kts 316°
2026-05-07 16:35 -61.62532 -59.97800 24517 ft 422 kts 316°
2026-05-07 16:36 -61.60270 -60.01686 25014 ft 424 kts 317°
2026-05-07 16:36 -61.57981 -60.05612 25502 ft 426 kts 317°
2026-05-07 16:36 -61.55654 -60.09596 25974 ft 429 kts 317°
2026-05-07 16:36 -61.53359 -60.13518 26449 ft 431 kts 317°
2026-05-07 16:37 -61.51000 -60.17539 26920 ft 433 kts 317°
2026-05-07 16:37 -61.48678 -60.21490 27378 ft 435 kts 317°
2026-05-07 16:37 -61.46324 -60.25489 27814 ft 438 kts 317°
2026-05-07 16:37 -61.43970 -60.29478 28244 ft 440 kts 317°
2026-05-07 16:38 -61.41574 -60.33530 28684 ft 442 kts 318°
2026-05-07 16:38 -61.39177 -60.37576 29108 ft 444 kts 318°
2026-05-07 16:38 -61.36772 -60.41628 29512 ft 446 kts 318°
2026-05-07 16:38 -61.34341 -60.45715 29911 ft 449 kts 318°
2026-05-07 16:39 -61.31917 -60.49781 30304 ft 450 kts 318°
2026-05-07 16:39 -61.29454 -60.53904 30644 ft 452 kts 318°
2026-05-07 16:39 -61.27005 -60.57997 30977 ft 455 kts 318°
2026-05-07 16:39 -61.24524 -60.62133 31270 ft 457 kts 318°
2026-05-07 16:40 -61.22049 -60.66251 31604 ft 458 kts 319°
2026-05-07 16:40 -61.19423 -60.70105 31912 ft 462 kts 328°
2026-05-07 16:40 -61.16665 -60.73400 32171 ft 465 kts 327°
2026-05-07 16:40 -61.13867 -60.76771 32478 ft 467 kts 327°
2026-05-07 16:41 -61.11029 -60.80207 32792 ft 468 kts 327°
2026-05-07 16:41 -61.08224 -60.83581 33097 ft 470 kts 327°
2026-05-07 16:41 -61.05389 -60.86968 33379 ft 472 kts 327°
2026-05-07 16:41 -61.02539 -60.90373 33671 ft 474 kts 327°
2026-05-07 16:42 -60.99678 -60.93795 33970 ft 476 kts 327°
2026-05-07 16:42 -60.96793 -60.97235 34243 ft 477 kts 327°
2026-05-07 16:42 -60.93956 -61.00604 34458 ft 479 kts 327°
2026-05-07 16:42 -60.91019 -61.04084 34745 ft 480 kts 327°
2026-05-07 16:43 -60.88145 -61.07487 35096 ft 479 kts 327°
2026-05-07 16:43 -60.85258 -61.10899 35408 ft 478 kts 328°
2026-05-07 16:43 -60.82351 -61.14325 35730 ft 478 kts 328°
2026-05-07 16:43 -60.79514 -61.17661 36018 ft 478 kts 328°
2026-05-07 16:44 -60.76619 -61.21059 36335 ft 477 kts 328°
2026-05-07 16:44 -60.73756 -61.24413 36644 ft 477 kts 328°
2026-05-07 16:44 -60.70855 -61.27804 36964 ft 476 kts 328°
2026-05-07 16:44 -60.67989 -61.31146 37277 ft 476 kts 328°
2026-05-07 16:45 -60.65126 -61.34479 37611 ft 475 kts 328°
2026-05-07 16:45 -60.62235 -61.37838 37915 ft 475 kts 328°
2026-05-07 16:45 -60.59426 -61.41094 38183 ft 475 kts 328°
2026-05-07 16:45 -60.56555 -61.44415 38490 ft 474 kts 328°
2026-05-07 16:46 -60.53671 -61.47744 38810 ft 474 kts 328°
2026-05-07 16:46 -60.50786 -61.51067 39056 ft 474 kts 328°
2026-05-07 16:46 -60.47905 -61.54381 39268 ft 474 kts 328°
2026-05-07 16:46 -60.45036 -61.57673 39488 ft 474 kts 328°
2026-05-07 16:47 -60.42155 -61.60971 39731 ft 474 kts 328°
2026-05-07 16:47 -60.39293 -61.64240 39959 ft 473 kts 328°
2026-05-07 16:47 -60.36445 -61.67488 40155 ft 474 kts 328°
2026-05-07 16:48 -60.30639 -61.74090 40193 ft 478 kts 328°
2026-05-07 16:48 -60.24895 -61.80590 40175 ft 473 kts 328°
2026-05-07 16:49 -60.19127 -61.87097 40184 ft 472 kts 328°
2026-05-07 16:49 -60.13432 -61.93491 40191 ft 472 kts 328°
2026-05-07 16:50 -60.07700 -61.99904 40200 ft 472 kts 328°
2026-05-07 16:50 -60.01969 -62.06287 40192 ft 471 kts 328°
2026-05-07 16:51 -59.96219 -62.12676 40197 ft 471 kts 328°
2026-05-07 16:51 -59.90479 -62.19048 40197 ft 471 kts 328°
2026-05-07 16:52 -59.84748 -62.25372 40202 ft 471 kts 328°
2026-05-07 16:52 -59.79041 -62.31651 40197 ft 470 kts 328°
2026-05-07 16:53 -59.73318 -62.37918 40205 ft 470 kts 328°
2026-05-07 16:53 -59.67609 -62.44149 40200 ft 469 kts 328°
2026-05-07 16:54 -59.61853 -62.50405 40206 ft 470 kts 329°
2026-05-07 16:54 -59.56149 -62.56580 40207 ft 469 kts 329°
2026-05-07 16:55 -59.50410 -62.62770 40207 ft 469 kts 329°
2026-05-07 16:55 -59.44699 -62.68905 40208 ft 469 kts 329°
2026-05-07 16:56 -59.39089 -62.74908 40210 ft 468 kts 329°
2026-05-07 16:56 -59.30529 -62.84026 40208 ft 467 kts 329°
2026-05-07 16:57 -59.24794 -62.90104 40210 ft 468 kts 329°
2026-05-07 16:57 -59.19092 -62.96123 40204 ft 467 kts 329°
2026-05-07 16:58 -59.13350 -63.02163 40204 ft 466 kts 329°
2026-05-07 16:58 -59.10529 -63.05122 39965 ft 466 kts 329°
2026-05-07 16:58 -59.07635 -63.08152 40066 ft 469 kts 329°
2026-05-07 16:59 -59.04762 -63.11155 40173 ft 473 kts 329°
2026-05-07 16:59 -59.01866 -63.14175 40208 ft 479 kts 329°
2026-05-07 16:59 -58.95890 -63.20387 40210 ft 491 kts 329°
2026-05-07 17:00 -58.89856 -63.26634 40216 ft 494 kts 329°
2026-05-07 17:00 -58.83809 -63.32870 40215 ft 493 kts 329°
2026-05-07 17:01 -58.77739 -63.39107 40216 ft 493 kts 329°
2026-05-07 17:01 -58.71694 -63.45293 40215 ft 493 kts 329°
2026-05-07 17:02 -58.65616 -63.51487 40213 ft 492 kts 329°
2026-05-07 17:02 -58.59605 -63.57589 40214 ft 491 kts 329°
2026-05-07 17:03 -58.53554 -63.63707 40210 ft 491 kts 330°
2026-05-07 17:03 -58.47506 -63.69799 40212 ft 491 kts 330°
2026-05-07 17:04 -58.41473 -63.75852 40206 ft 491 kts 330°
2026-05-07 17:04 -58.35413 -63.81908 40209 ft 492 kts 330°
2026-05-07 17:05 -58.29340 -63.87954 40208 ft 491 kts 330°
2026-05-07 17:05 -58.23290 -63.93952 40208 ft 490 kts 330°
2026-05-07 17:06 -58.17450 -63.99722 40210 ft 490 kts 330°
2026-05-07 17:06 -58.11417 -64.05659 40204 ft 490 kts 330°
2026-05-07 17:07 -58.05361 -64.11596 40207 ft 490 kts 330°
2026-05-07 17:07 -57.99494 -64.17325 40218 ft 490 kts 330°
2026-05-07 17:08 -57.93506 -64.23418 40211 ft 490 kts 329°
2026-05-07 17:08 -57.87470 -64.29513 40210 ft 490 kts 330°
2026-05-07 17:09 -57.81471 -64.35535 40209 ft 490 kts 329°
2026-05-07 17:09 -57.75461 -64.41569 40205 ft 490 kts 330°
2026-05-07 17:10 -57.69437 -64.47570 40201 ft 490 kts 329°
2026-05-07 17:10 -57.63440 -64.53542 40200 ft 490 kts 330°
2026-05-07 17:11 -57.58432 -64.58497 40203 ft 490 kts 330°
2026-05-07 17:11 -57.52424 -64.64434 40201 ft 489 kts 330°
2026-05-07 17:12 -57.46425 -64.70331 40200 ft 489 kts 330°
2026-05-07 17:12 -57.40364 -64.76276 40200 ft 490 kts 330°
2026-05-07 17:13 -57.34339 -64.82154 40195 ft 490 kts 330°
2026-05-07 17:13 -57.28335 -64.87998 40197 ft 489 kts 330°
2026-05-07 17:14 -57.22331 -64.93814 40193 ft 489 kts 330°
2026-05-07 17:14 -57.16297 -64.99642 40191 ft 489 kts 330°
2026-05-07 17:15 -57.10260 -65.05447 40194 ft 490 kts 330°
2026-05-07 17:15 -57.04215 -65.11242 40191 ft 490 kts 330°
2026-05-07 17:16 -56.98145 -65.17038 40188 ft 490 kts 330°
2026-05-07 17:16 -56.92132 -65.22758 40185 ft 489 kts 330°
2026-05-07 17:17 -56.86100 -65.28478 40184 ft 489 kts 330°
2026-05-07 17:17 -56.80076 -65.34164 40184 ft 489 kts 330°
2026-05-07 17:18 -56.74034 -65.39851 40186 ft 489 kts 330°
2026-05-07 17:18 -56.67935 -65.45568 40183 ft 490 kts 330°
2026-05-07 17:19 -56.61884 -65.51221 40182 ft 489 kts 330°
2026-05-07 17:19 -56.55842 -65.56845 40177 ft 490 kts 330°
2026-05-07 17:20 -56.49779 -65.62467 40176 ft 490 kts 330°
2026-05-07 17:20 -56.43689 -65.68095 40181 ft 490 kts 330°
2026-05-07 17:21 -56.37621 -65.73651 40181 ft 491 kts 334°
2026-05-07 17:21 -56.31378 -65.78796 40186 ft 491 kts 333°
2026-05-07 17:22 -56.25162 -65.83947 40184 ft 491 kts 333°
2026-05-07 17:22 -56.18964 -65.89012 40182 ft 490 kts 333°
2026-05-07 17:23 -56.12778 -65.94093 40180 ft 490 kts 333°
2026-05-07 17:23 -56.06648 -65.99078 40182 ft 489 kts 333°
2026-05-07 17:24 -56.00455 -66.04119 39879 ft 487 kts 333°
2026-05-07 17:24 -55.97331 -66.06648 39284 ft 490 kts 333°
2026-05-07 17:24 -55.94189 -66.09187 38763 ft 490 kts 333°
2026-05-07 17:25 -55.91084 -66.11694 38361 ft 485 kts 333°
2026-05-07 17:25 -55.88047 -66.14143 37965 ft 481 kts 334°
2026-05-07 17:25 -55.85051 -66.16554 37577 ft 477 kts 334°
2026-05-07 17:25 -55.81994 -66.19010 37172 ft 473 kts 334°
2026-05-07 17:26 -55.79048 -66.21372 36805 ft 469 kts 334°
2026-05-07 17:26 -55.76040 -66.23781 36435 ft 465 kts 334°
2026-05-07 17:26 -55.73131 -66.26104 35873 ft 453 kts 334°
2026-05-07 17:26 -55.70263 -66.28393 34731 ft 450 kts 334°
2026-05-07 17:27 -55.67454 -66.30631 33751 ft 439 kts 334°
2026-05-07 17:27 -55.64677 -66.32840 32698 ft 428 kts 334°
2026-05-07 17:27 -55.61994 -66.34971 31694 ft 418 kts 334°
2026-05-07 17:27 -55.59355 -66.37064 30721 ft 408 kts 334°
2026-05-07 17:28 -55.56816 -66.39075 30252 ft 404 kts 334°
2026-05-07 17:28 -55.54288 -66.41074 29890 ft 399 kts 334°
2026-05-07 17:28 -55.51744 -66.43083 29448 ft 396 kts 334°
2026-05-07 17:28 -55.49246 -66.45052 29008 ft 393 kts 334°
2026-05-07 17:29 -55.46730 -66.47034 28582 ft 389 kts 334°
2026-05-07 17:29 -55.44270 -66.48968 28178 ft 386 kts 334°
2026-05-07 17:29 -55.41825 -66.50888 27781 ft 384 kts 334°
2026-05-07 17:29 -55.39387 -66.52799 27610 ft 381 kts 334°
2026-05-07 17:30 -55.36974 -66.54689 27369 ft 379 kts 334°
2026-05-07 17:30 -55.34577 -66.56564 27160 ft 377 kts 334°
2026-05-07 17:30 -55.32210 -66.58413 26930 ft 373 kts 334°
2026-05-07 17:30 -55.29854 -66.60249 25969 ft 369 kts 334°
2026-05-07 17:31 -55.27534 -66.62057 25193 ft 362 kts 334°
2026-05-07 17:31 -55.25261 -66.63826 24575 ft 357 kts 334°
2026-05-07 17:31 -55.23005 -66.65579 24017 ft 351 kts 333°
2026-05-07 17:31 -55.20766 -66.67316 23354 ft 347 kts 333°
2026-05-07 17:32 -55.18597 -66.68998 22707 ft 342 kts 333°
2026-05-07 17:32 -55.16416 -66.70686 22068 ft 338 kts 333°
2026-05-07 17:32 -55.14320 -66.72307 21463 ft 333 kts 333°
2026-05-07 17:32 -55.12163 -66.73973 20853 ft 329 kts 333°
2026-05-07 17:33 -55.10112 -66.75556 20287 ft 325 kts 333°
2026-05-07 17:33 -55.08209 -66.77023 19771 ft 322 kts 333°
2026-05-07 17:33 -55.06214 -66.78559 19233 ft 318 kts 334°
2026-05-07 17:33 -55.04168 -66.80132 18688 ft 315 kts 334°
2026-05-07 17:34 -55.02208 -66.81684 18117 ft 310 kts 329°
2026-05-07 17:34 -55.00588 -66.83996 17442 ft 307 kts 310°
2026-05-07 17:34 -54.99412 -66.87111 16831 ft 305 kts 293°
2026-05-07 17:34 -54.98740 -66.90577 16220 ft 305 kts 288°
2026-05-07 17:35 -54.98131 -66.94047 15677 ft 304 kts 287°
2026-05-07 17:35 -54.97513 -66.97612 15133 ft 303 kts 287°
2026-05-07 17:35 -54.96893 -67.01163 14615 ft 302 kts 287°
2026-05-07 17:35 -54.96286 -67.04617 14116 ft 301 kts 287°
2026-05-07 17:36 -54.95684 -67.08043 13582 ft 300 kts 287°
2026-05-07 17:36 -54.95070 -67.11532 13063 ft 298 kts 286°
2026-05-07 17:36 -54.94460 -67.14991 12434 ft 296 kts 286°
2026-05-07 17:36 -54.93862 -67.18374 11841 ft 289 kts 286°
2026-05-07 17:37 -54.93275 -67.21689 11456 ft 294 kts 286°
2026-05-07 17:37 -54.92672 -67.25090 11032 ft 293 kts 285°
2026-05-07 17:37 -54.92166 -67.27934 10678 ft 290 kts 285°
2026-05-07 17:37 -54.91553 -67.31379 10373 ft 283 kts 285°
2026-05-07 17:38 -54.90980 -67.34588 10246 ft 270 kts 285°
2026-05-07 17:38 -54.90430 -67.37670 9901 ft 266 kts 285°
2026-05-07 17:38 -54.89884 -67.40727 9570 ft 264 kts 285°
2026-05-07 17:38 -54.89343 -67.43755 9253 ft 266 kts 285°
2026-05-07 17:39 -54.88791 -67.46826 8920 ft 266 kts 285°
2026-05-07 17:39 -54.88242 -67.49873 8588 ft 262 kts 285°
2026-05-07 17:39 -54.87695 -67.52912 8253 ft 263 kts 286°
2026-05-07 17:39 -54.87147 -67.55956 7927 ft 264 kts 286°
2026-05-07 17:40 -54.86601 -67.58978 7610 ft 262 kts 286°
2026-05-07 17:40 -54.86062 -67.61952 7289 ft 259 kts 286°
2026-05-07 17:40 -54.85529 -67.64889 6976 ft 255 kts 287°
2026-05-07 17:40 -54.84991 -67.67854 6645 ft 249 kts 287°
2026-05-07 17:41 -54.84496 -67.70572 6413 ft 228 kts 287°
2026-05-07 17:41 -54.84038 -67.73085 6294 ft 210 kts 287°
2026-05-07 17:41 -54.83601 -67.75484 6186 ft 205 kts 286°
2026-05-07 17:41 -54.83202 -67.77669 6084 ft 201 kts 286°
2026-05-07 17:42 -54.82786 -67.79943 5976 ft 199 kts 286°
2026-05-07 17:42 -54.82414 -67.82280 5864 ft 200 kts 277°
2026-05-07 17:42 -54.82503 -67.84688 5702 ft 195 kts 260°
2026-05-07 17:42 -54.82675 -67.86929 5672 ft 190 kts 262°
2026-05-07 17:43 -54.82779 -67.89287 5397 ft 195 kts 264°
2026-05-07 17:43 -54.82868 -67.91636 5090 ft 191 kts 264°
2026-05-07 17:43 -54.82953 -67.93833 4723 ft 186 kts 264°
2026-05-07 17:43 -54.83034 -67.96002 4438 ft 169 kts 264°
2026-05-07 17:44 -54.83109 -67.97996 4173 ft 163 kts 264°
2026-05-07 17:44 -54.83179 -67.99872 3920 ft 148 kts 264°
2026-05-07 17:44 -54.83252 -68.01581 3695 ft 141 kts 263°
2026-05-07 17:44 -54.83317 -68.03270 3474 ft 139 kts 264°
2026-05-07 17:45 -54.83382 -68.04952 3243 ft 139 kts 263°
2026-05-07 17:45 -54.83445 -68.06601 3021 ft 139 kts 263°
2026-05-07 17:45 -54.83509 -68.08277 2793 ft 136 kts 264°
2026-05-07 17:45 -54.83573 -68.09926 2570 ft 136 kts 263°
2026-05-07 17:46 -54.83635 -68.11546 2349 ft 135 kts 264°
2026-05-07 17:46 -54.83698 -68.13182 2124 ft 136 kts 264°
2026-05-07 17:46 -54.83760 -68.14807 1904 ft 135 kts 264°
2026-05-07 17:46 -54.83823 -68.16408 1656 ft 134 kts 264°
2026-05-07 17:47 -54.83886 -68.18020 1418 ft 134 kts 265°
2026-05-07 17:47 -54.83949 -68.19639 1182 ft 134 kts 266°
2026-05-07 17:47 -54.84012 -68.21258 956 ft 134 kts 267°
2026-05-07 17:47 -54.84072 -68.22839 751 ft 133 kts 268°
2026-05-07 17:48 -54.84134 -68.24462 542 ft 133 kts 268°
2026-05-07 17:48 -54.84198 -68.26036 336 ft 133 kts 268°
2026-05-07 17:48 -54.84255 -68.27640 114 ft 131 kts 269°
2026-05-07 17:48 -54.84304 -68.29007 67 ft 79 kts 264°
2026-05-07 17:49 -54.84333 -68.29635 63 ft 42 kts 266°
2026-05-07 17:49 -54.84353 -68.30119 60 ft 39 kts 265°
2026-05-07 17:49 -54.84372 -68.30565 68 ft 36 kts 266°
2026-05-07 17:49 -54.84380 -68.30927 60 ft 10 kts 297°
2026-05-07 17:50 -54.84362 -68.30952 63 ft 1 kts 349°
2026-05-07 17:50 -54.84350 -68.30956 63 ft 3 kts 352°
2026-05-07 17:50 -54.84322 -68.30960 61 ft 5 kts 357°
2026-05-07 17:50 -54.84292 -68.30962 64 ft 3 kts 356°
2026-05-07 17:51 -54.84275 -68.30965 67 ft 3 kts 355°
2026-05-07 17:51 -54.84243 -68.30969 69 ft 7 kts 355°
2026-05-07 17:51 -54.84179 -68.30978 74 ft 11 kts 355°
2026-05-07 17:51 -54.84104 -68.30998 88 ft 6 kts 324°
2026-05-07 17:52 -54.84091 -68.31039 86 ft 4 kts 270°
2026-05-07 17:52 -54.84094 -68.31141 87 ft 11 kts 270°
2026-05-07 17:52 -54.84088 -68.31173 86 ft 1 kts 330°
2026-05-07 17:52 -54.84079 -68.31174 88 ft 3 kts 360°
2026-05-07 17:53 -54.84038 -68.31177 85 ft 0 kts 356°